Regional Weather Roundup
Issued by NWS

Home | Current Version | Previous Version | Text Only | Print | Product List | Glossary Off
Versions: 1 2 3 4 5 6 7 8 9 10 11 12 13 14 15 16 17 18 19 20 21 22 23 24 25 26 27 28 29 30 31 32 33 34 35 36 37 38 39 40 41 42 43 44 45 46 47 48 49 50

000
ASUS45 KBOU 220007
RWRCO

WEATHER ROUNDUP FOR COLORADO
NATIONAL WEATHER SERVICE DENVER/BOULDER CO
500 PM MST SUN DEC 21 2014

NOTE: "FAIR" INDICATES FEW OR NO CLOUDS BELOW 12000 FEET WITH NO
SIGNIFICANT WEATHER AND/OR OBSTRUCTIONS TO VISIBILITY.

COZ001>005-013-030-031-220100-
...NORTHWEST COLORADO...

CITY           SKY/WX    TMP DP  RH WIND       PRES   REMARKS
CRAIG          CLOUDY    39  31  72 W29G36    29.73S
HAYDEN         CLOUDY    37  28  70 W18       29.71S
MEEKER         CLOUDY    35  31  85 CALM      29.80R
MOUNT WERNER   NOT AVBL
STEAMBOAT SPGS CLOUDY    34  31  89 W14       29.72S WCI  24
WALDEN         CLOUDY    32  28  86 SW12      29.65S WCI  23
$$

COZ006>008-011-220100-
...WEST CENTRAL VALLEYS...

CITY           SKY/WX    TMP DP  RH WIND       PRES   REMARKS
GRAND JUNCTION CLOUDY    34  32  92 SW3       29.94R
MONTROSE       CLOUDY    34  31  88 CALM      29.93R
EAGLE          CLOUDY    36  28  75 NW6       29.82F
RIFLE          MIX PCPN  35  30  82 W21G32    29.85F WCI  24
DELTA          CLOUDY    37  33  86 SW5       29.93S
NUCLA          CLOUDY    37  32  81 CALM      29.98S
$$

COZ017>023-064>068-220100-
...SOUTHWEST COLORADO...

CITY           SKY/WX    TMP DP  RH WIND       PRES   REMARKS
DURANGO        MOCLDY    34  28  79 E7        29.93S WCI  28
CORTEZ         PTCLDY    38  29  70 NE6       29.99R
PAGOSA SPRINGS CLOUDY    31  29  89 CALM      29.95R
TELLURIDE      CLOUDY    32  31  96 SW9       29.98S WCI  24
WOLF CREEK PAS   N/A     18  18 100 MISG      29.93R
$$

COZ009-010-012-014-032>034-037-058>063-220100-
...CENTRAL COLORADO...

CITY           SKY/WX    TMP DP  RH WIND       PRES   REMARKS
ASPEN          LGT SNOW  27  25  92 CALM      29.82S FOG
BUENA VISTA    FLURRIES  34  26  74 W9G18     29.73S WCI  26
COPPER MTN     CLOUDY    25  19  80 W45       29.71F WCI   5
BERTHOUD PASS  HVY SNOW  18  12  79 MISG      29.53F VSB<1/4
COTTONWOOD PAS LGT SNOW  32  27  80 NW15G28   29.72F WCI  22
GUNNISON       CLOUDY    28  25  86 N7        29.84F WCI  21
KREMMLING      LGT SNOW  32  27  80 SW30G37   29.69F WCI  18
LEADVILLE      LGT SNOW  24  21  88 NW16G32   29.74R FOG     WCI  11
SALIDA         CLOUDY    40  25  54 SW17G24   29.80S
SUNLIGHT       MIX PCPN N/A N/A N/A S5        29.84R VSB 3/4
WILKERSON PASS SNOW      23  21  93 SW8       29.73F VSB 1/2 WCI  14
$$

COZ069>075-220100-
...SAN LUIS VALLEY/SANGRE DE CRISTO MOUNTAINS...

CITY           SKY/WX    TMP DP  RH WIND       PRES   REMARKS
ALAMOSA        CLOUDY    36  22  56 E8        29.81S
LA VETA PASS   CLOUDY    27  21  80 S15G32    29.76R WCI  15
SAGUACHE       LGT SNOW  30  30 100 E8        29.81F VSB 1   WCI  23
$$

COZ035-036-038>040-220100-
...NORTHERN COLORADO FRONT RANGE...

CITY           SKY/WX    TMP DP  RH WIND       PRES   REMARKS
DENVER INTL AP CLOUDY    46  25  43 W10       29.55R
DMNS CITY PARK   N/A     47  25  42 NW3G9     29.56R
AURORA         MOCLDY    46  26  44 NW10      29.58R
FRONT RANGE AP CLOUDY    45  28  53 W6        29.56S
ERIE MUNI ARPT NOT AVBL
BOULDER MUN AP CLOUDY    46  27  46 NW14      29.53S
CENTENNIAL     CLOUDY    40  26  57 S7        29.58R
BROOMFIELD     MOCLDY    45  27  49 W7        29.56S
FORT COLLINS   MOCLDY    48  27  43 N12       29.55R
LONGMONT       MOCLDY    43  27  53 S5        29.55S
$$

COZ041-046-047-076>085-087-088-220100-
...PIKES PEAK/PALMER DIVIDE AND SOUTHERN FOOTHILLS...

CITY           SKY/WX    TMP DP  RH WIND       PRES   REMARKS
COLO. SPRINGS  CLOUDY    46  24  42 N18       29.59F
A. F. ACADEMY  CLOUDY    43  24  46 NW16G22   29.61R
ELLICOTT       NOT AVBL
FALCON         CLOUDY    41  23  48 W15G21    29.61F
FORT CARSON    CLOUDY    43  22  43 E3        29.57F
LIMON          CLOUDY    43  26  51 W8        29.57R
MONUMENT HILL  CLOUDY    37  23  56 W14       29.60S
TRINIDAD       CLOUDY    49  23  36 NW10      29.62R
$$

COZ042>045-048>051-090-091-220100-
...NORTHEAST COLORADO...

CITY           SKY/WX    TMP DP  RH WIND       PRES   REMARKS
GREELEY ARPT   CLOUDY    48  27  43 NW14      29.52R
AKRON          CLOUDY    43  31  62 W8        29.53S
BURLINGTON     CLOUDY    47  31  53 NW13      29.55R
WRAY           CLOUDY    40  33  75 W13       29.52S
STERLING       CLOUDY    37  34  87 SW6       29.51S
HOLYOKE        CLOUDY    37  32  81 W8        29.51S
FORT MORGAN    CLOUDY    36  29  74 W6        29.55R
$$

COZ086-089-092>099-220100-
...SOUTHEAST COLORADO...

CITY           SKY/WX    TMP DP  RH WIND       PRES   REMARKS
PUEBLO         CLOUDY    52  23  32 W22       29.56F
LA JUNTA       CLOUDY    39  29  67 W5        29.55S
LAMAR          PTCLDY    39  27  62 SW6       29.53R
SPRINGFIELD      N/A     45  25  45 W9        29.56S
$$


USA.gov is the U.S. government's official web portal to all federal, state and local government web resources and services.